sat.trackr.live / text

‹ back to catalog

FOSSASAT-2E21

NORAD 64536 · 2025-135J

PAYLOAD ACTIVE UNKNOWN

§ Identity

Operator
Country
SPN
Launch date
2025-06-23
Launch site
AFWTR
Launch vehicle
Mass (kg)
RCS (m²)

External: N2YO · Heavens-Above · Gunter

§ Orbital elements

Epoch: 2026-05-24T20:10:07.985280Z

Period
94.75 min
Inclination
97.4622°
Eccentricity
0.0002615
Mean motion
15.19822589 rev/d
Perigee alt
504.6 km
Apogee alt
508.2 km
Semi-major
6,884.5 km
B*
1.1189e-4
RAAN
259.4190°
Arg perigee
262.4274°
Mean anomaly
97.6664°
Rev number
5,127

§ Raw data

FOSSASAT-2E211 64536U 25135J   26144.84037020  .00002329  00000+0  11189-3 0  99992 64536  97.4622 259.4190 0002615 262.4274  97.6664 15.19822589 51270

JSON: /api/v1/satellites/64536 · /tle

For live sub-satellite position, see the globe view (requires WebGL).

§ Visibility from observer

Set your observer location to see the next 7 days of passes ≥ 10°. The values pass through the URL so the page stays shareable.

No JS? Fill the form by hand. The geolocation button needs JavaScript.

§ Radio — SatNOGS DB

ModeDescriptionDownlinkUplink
LoRa Mode U - LoRa 401.700 MHz

1 transmitter · refreshed weekly from db.satnogs.org